Location: *
(49.5667°N, 1.3667°W)
Time: 03:54:38
(UTC+00:00)

Cosmos 1420 Rocket - Pass Details

Date: 20 September 2019
Orbit: 754 x 781 km, 74.0° (Epoch: 17 October)

Event Time Altitude Azimuth Distance (km) Brightness Sun altitude
Rises 20:23:14 0° 194° (SSW) 3,243 7.1 -21.7°
Reaches altitude 10° 20:25:36 10° 192° (SSW) 2,323 6.3 -22.0°
Maximum altitude 20:30:51 69° 110° (ESE) 837 3.9 -22.7°
Drops below altitude 10° 20:36:09 10° 28° (NNE) 2,347 6.6 -23.5°
Sets 20:38:33 0° 26° (NNE) 3,280 7.4 -23.8°
